Weather WX

World > North America > United States > Oregon

Boring, Oregon Regional Weather

Lat: 45.43N, Lon: 122.38W
Wx Zone: ORZ006
Feedback

Boring, OR Regional Weather

Expires:201906241800;;009776
ASUS46 KPQR 241710
RWROR 

OREGON REGIONAL WEATHER ROUNDUP
NATIONAL WEATHER SERVICE PORTLAND OR
1000 AM PDT MON JUN 24 2019

NOTE: "FAIR" INDICATES FEW OR NO CLOUDS BELOW 12,000 FEET WITH
NO SIGNIFICANT WEATHER AND/OR OBSTRUCTIONS TO VISIBILITY.


ORZ001>013-241800-
NORTHWEST OREGON

  
CITY           SKY/WX    TMP DP  RH WIND       PRES   REMARKS
ASTORIA        CLOUDY    60  49  66 N7        30.09S                  
TILLAMOOK      SUNNY     61  45  55 N5        30.10F                  
NEWPORT        SUNNY     57  46  67 CALM      30.11F                  
PORTLAND       PTSUNNY   60  44  55 CALM      30.09F                  
VANCOUVER WA   CLOUDY    60  44  55 NW6       30.08F                  
SCAPPOOSE      CLOUDY    58  49  72 CALM      30.08F                  
HILLSBORO      MOSUNNY   60  45  57 NE5       30.08F                  
AURORA         PTSUNNY   62  44  51 VRB6      30.09F                  
MCMINNVILLE    MOSUNNY   59  45  59 VRB5      30.08F                  
SALEM          MOSUNNY   61  43  51 N9        30.08S                  
CORVALLIS      PTSUNNY   62  46  55 VRB5      30.08F                  
EUGENE         MOSUNNY   62  47  57 N10       30.07F                  
$$


SKY/WX - Weather  TMP - Temperature  DP - Dew Point  RH - Relative Humidity
WIND - Wind Direction/Speed PRES - Barometric Pressure VSB - Visibility
WCI - Wind Chill Index E13G22 Wind - East Wind 13 mph/Gusts of 22 mph